www.pogodaiklimat.ru

Погода и климат >> Архив погоды >> Бельгия >> Шарлеруа


ПОГОДА в Шарлеруа

  • Прогноз погоды в Шарлеруа
  • Монитор погоды в Шарлеруа

АРХИВ ПОГОДЫ в Шарлеруа

Время (UTC), дата Ветер
(напр.,м/с)
 
Видим.   Явления Облачность Т
(С)
Тd
(С)
f
(%)
Тe
(С)
Тes
(С)
Комфортность P
(гПа)
Po
(гПа)
Тmin
(С)
Tmax
(С)
R
(мм)
R24
(мм)
S
(см)
07 12.05 С 2
{4}
20 км 8/8 600 м
[Cu Sc]
+7.0 +3.0 76 +5 +6 1034.0 1010.7
08 12.05 С 4
{6}
20 км 5/4 750 м
[Cu Sc Ci fib]
+8.9 +2.3 63 +6 +9 1034.4 1011.2
09 12.05 СВ 6
{9}
20 км 6/5 900 м
[Cu Sc Ci sp]
+9.6 +1.7 58 +6 +8 1034.7 1011.6
10 12.05 С 4
{8}
20 км 4/4 1020 м
[Cu Sc Ci sp]
+10.2 +1.6 55 +8 +14 1034.8 1011.7
11 12.05 СВ 5
{7}
20 км 6/4 1080 м
[Cu Sc Ci sp]
+10.5 +1.1 52 +8 +13 1035.0 1011.9
12 12.05 С 4
{9}
20 км 6/5 1140 м
[Cu Sc Ci sp]
+11.2 +1.8 52 +9 +14 1035.0 1012.0
13 12.05 С 4
{8}
20 км 6/4 1140 м
[Cu Sc Ci sp]
+10.9 +1.6 53 +9 +15 1035.4 1012.3
14 12.05 С 3
{7}
20 км 8/6 1140 м
[Cu Sc Ci sp]
+11.4 +1.5 51 +10 +14 1035.6 1012.6
15 12.05 С 3
{8}
20 км 6/5 1260 м
[Cu Sc Ci sp]
+12.3 +1.4 47 +11 +15 1035.6 1012.7
16 12.05 С 4
{7}
20 км 6/5 1260 м
[Cu Sc Ci sp]
+11.8 +2.4 52 +10 +12 1035.8 1012.9
17 12.05 С 5
{7}
20 км 6/6 1260 м
[Cu Sc Ci sp]
+12.0 +2.3 51 +10 +10 1035.9 1012.9
18 12.05 С 5
{8}
20 км 8/6 1260 м
[Cu Sc Ci sp]
+11.5 +2.5 54 +9 +9 1036.3 1013.3 +13.1
19 12.05 С 4
{7}
20 км 5/4 1260 м
[Cu Sc Ci sp]
+11.1 +2.3 55 +9 +9 1036.7 1013.7
20 12.05 С 3
{6}
20 км 3/3 1500 м
[Sc diur, vesp Ci sp]
+9.4 +2.7 63 +7 +7 1037.4 1014.2
21 12.05 С 3
{7}
20 км 1/1 1500 м
[Sc Ci sp]
+8.3 +3.4 71 +6 +6 1037.9 1014.6
22 12.05 С 3
{5}
20 км 1/0
[Ci fib]
+7.4 +3.4 76 +5 +5 1038.2 1014.8
23 12.05 С 3
{6}
20 км 1/0
[Ci fib]
+6.9 +3.0 76 +4 +4 1038.7 1015.2
00 13.05 С 3
{7}
20 км 1/0
[Ci fib]
+6.0 +2.7 79 +3 +3 1038.7 1015.2
01 13.05 СВ 3
{4}
20 км 1/0
[Ci fib]
+5.2 +2.7 84 +2 +2 1038.8 1015.2
02 13.05 СВ 3
{5}
20 км 1/0
[Ci fib]
+4.9 +2.6 85 +1 +1 1038.8 1015.2
03 13.05 СВ 4
{6}
20 км 1/0
[Ci fib]
+4.5 +2.6 87 0 0 1038.8 1015.2
04 13.05 СВ 3
{6}
20 км 1/0
[Ci fib]
+3.7 +2.1 89 -0 -0 1039.0 1015.3
05 13.05 СВ 3
{6}
20 км 1/0
[Ci fib]
+4.2 +2.2 87 +1 +1 1039.2 1015.6
06 13.05 СВ 3
{6}
20 км 1/0
[Ci fib]
+5.2 +2.7 84 +2 +3 1039.5 1015.9 +3.5
07 13.05 СВ 5
{6}
20 км 1/0
[Ci fib]
+7.4 +3.1 74 +4 +6 1039.5 1016.1
08 13.05 СВ 4
{7}
20 км 3/0
[Ci fib]
+8.9 +3.4 68 +6 +11 1039.5 1016.2
09 13.05 СВ 6
{9}
20 км 4/1 750 м
[Cu hum Ci fib]
+10.2 +1.8 56 +7 +11 1039.4 1016.2
10 13.05 СВ 6
{9}
20 км 6/0
[Ci fib]
+11.3 -0.2 45 +9 +14 1039.3 1016.1
11 13.05 СВ 7
{10}
20 км 6/0
[Ci fib]
+12.3 -0.9 40 +10 +14 1039.1 1016.0
12 13.05 СВ 6
{10}
20 км 6/0
[Ci fib]
+12.6 -2.5 35 +11 +16 1038.6 1015.6
13 13.05 СВ 7
{11}
20 км 4/0
[Ci fib]
+13.7 -3.0 31 +12 +16 1038.1 1015.2
14 13.05 СВ 6
{11}
20 км 1/0
[Ci fib]
+14.3 -2.0 32 +13 +18 1037.6 1014.7
15 13.05 СВ 8
{12}
20 км 1/0
[Ci fib]
+14.5 -2.8 30 +13 +14 1037.0 1014.2
16 13.05 СВ 7
{12}
20 км 1/0
[Ci fib]
+14.3 -2.8 31 +12 +14 1036.6 1013.8
17 13.05 СВ 7
{11}
20 км 1/0
[Ci fib]
+14.2 -3.5 29 +12 +13 1036.2 1013.4
18 13.05 СВ 6
{12}
20 км 4/0
[Ci sp]
+13.7 -1.9 34 +12 +12 1036.2 1013.3 +15.0
19 13.05 СВ 5
{9}
20 км 4/0
[Ci sp]
+12.0 -1.5 39 +10 +10 1036.1 1013.1
20 13.05 СВ 3
{6}
20 км 3/0
[Ci sp]
+11.0 -0.5 45 +10 +10 1036.3 1013.2
21 13.05 СВ 3
{9}
20 км 3/0
[Ci fib]
+9.5 -0.4 50 +8 +8 1036.4 1013.2
22 13.05 СВ 4
{6}
20 км 3/0
[Ci fib]
+9.1 -1.4 48 +7 +7 1036.4 1013.2
23 13.05 СВ 4
{7}
20 км 3/0
[Ci fib]
+8.3 +1.1 60 +5 +5 1036.2 1012.9
00 14.05 СВ 3
{9}
20 км 3/0
[Ci fib]
+7.3 +2.7 73 +5 +5 1036.2 1012.8
01 14.05 СВ 5
{6}
20 км 1/0
[Ci fib]
+6.9 +2.8 75 +3 +3 1036.0 1012.6
02 14.05 СВ 4
{7}
20 км 1/0
[Ci fib]
+6.2 +1.9 74 +3 +3 1035.6 1012.2
03 14.05 СВ 4
{7}
20 км 1/0
[Ci fib]
+5.4 +1.2 74 +2 +2 1035.6 1012.1
04 14.05 СВ 3
{6}
20 км 1/0
[Ci fib]
+4.6 +1.1 78 +1 +1 1035.5 1012.0
05 14.05 СВ 4
{7}
20 км 1/0
[Ci fib]
+5.0 +1.2 76 +1 +1 1035.2 1011.7
06 14.05 СВ 5
{7}
20 км 1/0
[Ci fib]
+6.2 +1.9 74 +2 +3 1035.1 1011.7 +4.5
07 14.05 В 6
{8}
20 км 1/0
[Ci fib]
+7.3 +1.8 68 +3 +5 1034.8 1011.5
08 14.05 СВ 5
{8}
20 км 4/0
[Ci fib]
+8.8 +1.9 62 +6 +10 1034.4 1011.3
09 14.05 СВ 6
{10}
20 км 4/0
[Ci fib]
+10.2 +1.7 56 +7 +11 1034.2 1011.1
10 14.05 СВ 6
{10}
20 км 4/0
[Ci fib]
+11.5 +2.0 52 +9 +14 1033.7 1010.7
11 14.05 СВ 7
{11}
20 км 4/0
[Ci fib]
+12.4 +1.3 47 +10 +14 1032.9 1010.1
12 14.05 СВ 7
{11}
20 км 4/0
[Ci fib]
+13.2 +0.6 42 +11 +15 1032.3 1009.5
13 14.05 СВ 7
{11}
20 км 1/0
[Ci fib]
+13.9 +0.7 40 +12 +16 1031.5 1008.7
14 14.05 СВ 7
{11}
20 км 1/0
[Ci fib]
+14.8 +1.4 40 +13 +17 1030.8 1008.1
15 14.05 СВ 6
{12}
20 км 1/0
[Ci fib]
+14.6 +1.6 41 +13 +17 1030.1 1007.5
16 14.05 СВ 7
{11}
20 км 1/0
[Ci fib]
+14.0 +1.8 44 +12 +14 1029.3 1006.7
17 14.05 СВ 7
{10}
20 км 1/0
[Ci fib]
+14.5 +1.5 41 +13 +13 1029.1 1006.5
18 14.05 СВ 6
{12}
20 км 1/0
[Ci sp]
+13.9 +2.0 44 +12 +13 1029.0 1006.3 +15.0
19 14.05 СВ 5
{9}
20 км 1/0
[Ci fib]
+12.6 +0.9 45 +11 +11 1029.0 1006.2
20 14.05 СВ 4
{6}
20 км 1/0
[Ci fib]
+11.6 +1.6 50 +10 +10 1028.9 1006.1
21 14.05 СВ 3
{9}
20 км 1/0
[Ci fib]
+10.2 +1.9 56 +8 +8 1029.1 1006.1
22 14.05 СВ 3
{5}
20 км 1/0
[Ci fib]
+9.1 +1.9 61 +7 +7 1029.1 1006.1
23 14.05 СВ 3
{4}
20 км 1/0
[Ci fib]
+7.8 +2.0 67 +5 +5 1028.9 1005.7
00 15.05 СВ 2
{9}
20 км 1/0
[Ci fib]
+8.1 +1.7 64 +6 +6 1028.6 1005.5
01 15.05 СВ 3
{4}
20 км 1/0
[Ci fib]
+7.4 +1.6 67 +5 +5 1028.1 1004.9
02 15.05 СВ 3
{4}
20 км 1/0
[Ci fib]
+6.7 +1.3 68 +4 +4 1027.8 1004.6
03 15.05 СВ 2
{4}
20 км 1/0
[Ci fib]
+5.2 +1.3 76 +3 +3 1028.0 1004.7
04 15.05 СВ 2
{3}
20 км 1/0
[Ci fib]
+4.6 +1.2 79 +2 +2 1028.1 1004.7
05 15.05 СВ 2
{4}
20 км 1/0
[Ci fib]
+6.3 +1.8 73 +4 +5 1028.0 1004.8
06 15.05 СВ 2
{4}
20 км 1/0
[Ci fib]
+8.4 +2.7 67 +7 +9 1027.8 1004.7 +4.6
07 15.05 СВ 2
{3}
20 км 1/0
[Ci fib]
+10.2 +2.7 60 +9 +14 1027.6 1004.7
08 15.05 СВ 2
{4}
20 км 1/0
[Ci fib]
+12.0 +2.4 52 +11 +19 1027.4 1004.6
09 15.05 СВ 5
{8}
25 км ясно +13.1 +0.8 43 +11 +17 1026.9 1004.2
10 15.05 СВ 6
{9}
25 км 1/1 1500 м
[Cu hum]
+13.8 +0.7 41 +12 +17 1026.2 1003.6
11 15.05 СВ 7
{11}
25 км 1/1 1500 м
[Cu hum]
+14.3 +0.8 40 +12 +16 1025.6 1003.0
12 15.05 СВ 7
{12}
25 км 1/1 1500 м
[Cu hum Ci fib]
+15.0 +1.1 39 +13 +17 1024.9 1002.4
13 15.05 СВ 6
{10}
25 км 1/1 1500 м
[Cu hum]
+15.4 +0.9 37 +14 +19 1024.5 1002.0
14 15.05 СВ 7
{10}
25 км 1/1 1500 м
[Cu hum]
+16.1 -1.7 30 +15 +18 1023.9 1001.5
15 15.05 СВ 6
{11}
25 км 1/1 1500 м
[Cu hum]
+15.7 -3.9 26 +15 +18 1023.5 1001.1
16 15.05 СВ 6
{10}
25 км 1/0
[Ci fib]
+15.7 -3.1 27 +15 +17 1023.1 1000.7
17 15.05 СВ 6
{11}
25 км 1/0
[Ci fib]
+15.1 -4.5 26 +14 +15 1022.9 1000.4
18 15.05 В 6
{11}
25 км 1/0
[Ci fib]
+14.4 -3.9 28 +13 +13 1022.7 1000.2 +16.2
19 15.05 СВ 5
{9}
25 км 1/0
[Ci fib]
+13.2 -1.9 35 +12 +12 1022.8 1000.2
20 15.05 СВ 3
{6}
25 км 1/0
[Ci fib]
+11.5 -1.4 41 +10 +10 1023.0 1000.2
21 15.05 СВ 3
{9}
25 км 1/0
[Ci fib]
+10.1 -1.4 45 +8 +8 1023.0 1000.1
22 15.05 СВ 3
{5}
25 км 1/0
[Ci fib]
+9.1 -0.4 51 +7 +7 1022.6 999.7
23 15.05 СВ 3
{4}
25 км 1/0
[Ci fib]
+7.9 +0.1 58 +6 +6 1022.4 999.4
00 16.05 СВ 2
{9}
25 км 1/0
[Ci fib]
+7.8 +0.4 59 +6 +6 1021.9 998.9
01 16.05 СВ 3
{4}
25 км 1/0
[Ci fib]
+6.7 +0.6 65 +4 +4 1021.5 998.4
02 16.05 СВ 3
{4}
25 км 1/0
[Ci fib]
+7.0 +1.8 69 +4 +4 1021.1 998.1
03 16.05 СВ 3
{4}
25 км 1/0
[Ci fib]
+5.1 -0.2 69 +2 +2 1021.1 997.9
04 16.05 СВ 2
{4}
25 км 1/0
[Ci fib]
+4.5 +0.8 77 +2 +2 1020.9 997.6
05 16.05 СВ 2
{4}
25 км 1/1 1500 м
[Sc diur, vesp]
+5.9 +1.3 72 +4 +4 1020.7 997.6
06 16.05 СВ 3
{4}
25 км 1/1 1500 м
[Sc]
+7.6 +1.7 66 +5 +7 1020.4 997.4 +3.6
07 16.05 СВ 2
{4}
25 км 1/1 1500 м
[Sc]
+9.7 +1.1 55 +9 +13 1020.2 997.4
08 16.05 СВ 4
{7}
25 км 1/0
[Ac trans Ci fib]
+11.6 +2.2 52 +10 +15 1019.7 997.0
09 16.05 СВ 4
{7}
25 км 4/1 1050 м
[Cu Sc Ac trans Ci fib]
+12.8 +2.7 50 +11 +17 1019.0 996.5
10 16.05 СВ 4
{7}
25 км 4/4 1350 м
[Cu Sc Ac trans Ci fib]
+13.4 +1.7 45 +12 +18 1018.6 996.1
11 16.05 СВ 5
{10}
25 км 4/4 1350 м
[Cu Sc Ac trans Ci fib]
+13.7 +0.9 42 +12 +17 1017.9 995.5
12 16.05 СВ 5
{10}
25 км 4/4 1350 м
[Cu Sc Ac trans Ci fib]
+14.9 +2.9 44 +14 +19 1017.2 994.9
13 16.05 СВ 3
{9}
25 км 4/4 1350 м
[Cu Sc Ac trans Ci fib]
+14.7 +3.2 46 +14 +22 1016.5 994.2
14 16.05 СВ 5
{9}
25 км 4/4 1350 м
[Cu Sc Ac trans Ci fib]
+15.9 +3.3 43 +15 +19 1015.3 993.0
15 16.05 СВ 6
{10}
25 км 1/1 1350 м
[Cu hum Ac trans Ci fib]
+15.4 +2.7 42 +14 +17 1014.3 992.1
16 16.05 СВ 5
{10}
25 км 1/1 1350 м
[Cu hum Ac trans Ci fib]
+15.0 +3.6 46 +14 +17 1014.1 991.9
17 16.05 СВ 6
{8}
25 км 1/1 1350 м
[Cu hum Ci fib]
+15.2 +3.9 47 +14 +15 1013.4 991.2
18 16.05 СВ 5
{10}
25 км 1/1 1350 м
[Cu hum]
+14.6 +4.6 51 +13 +14 1013.1 990.8 +16.1
19 16.05 СВ 3
{7}
25 км 4/4 1500 м
[Sc]
+13.6 +5.3 57 +13 +13 1012.8 990.4
20 16.05 СВ 3
{5}
25 км 4/3 1500 м
[Sc Ci fib]
+12.0 +6.1 67 +11 +11 1012.5 990.1
21 16.05 СВ 4
{7}
25 км 4/3 1500 м
[Sc Ci fib]
+11.5 +6.0 69 +9 +9 1012.4 989.9
22 16.05 В 2
{5}
25 км 4/3 1500 м
[Sc Ci fib]
+10.7 +5.8 72 +10 +10 1011.9 989.4
23 16.05 В 2
{3}
25 км 4/3 1500 м
[Sc Ci fib]
+9.8 +5.8 76 +8 +8 1011.3 988.8
00 17.05 В 1
{7}
25 км 4/3 1500 м
[Sc Ci fib]
+10.3 +6.0 75 +10 +10 1010.5 988.0
01 17.05 В 1
{2}
25 км 8/0
[Ac trans]
+10.1 +6.0 76 +10 +10 1009.6 987.1
02 17.05 СВ 3
{5}
25 км 9/9 2000 м
[Sc]
+9.6 +6.2 79 +7 +7 1009.0 986.4
03 17.05 СВ 3
{5}
25 км 9/9 1350 м
[Sc]
+9.5 +6.6 82 +7 +7 1008.6 986.1
04 17.05 СВ 5
{6}
9000 м 9/9 1140 м
[Sc]
+9.4 +6.3 81 +6 +6 1008.4 985.9
05 17.05 В 4
{7}
3800 м дождь 9/9 400 м
[Sc]
+8.7 +7.5 92 +5 +5 1008.4 985.8
06 17.05 СВ 4
{7}
3000 м дождь {морось} 9/9 360 м
[Sc diur, vesp]
+8.5 +8.0 97 +5 +5 1008.6 986.0 +8.5
07 17.05 СВ 4
{5}
2500 м дождь {морось} 9/9 270 м
[Sc diur, vesp]
+8.9 +8.2 95 +6 +6 1008.2 985.6
08 17.05 СВ 3
{5}
4500 м дымка {дождь} 9/9 240 м
[Sc diur, vesp]
+9.5 +8.3 92 +7 +8 1007.9 985.4
09 17.05 СВ 3
{5}
5000 м дымка {дождь} 9/9 240 м
[Sc diur, vesp]
+9.4 +7.9 90 +7 +8 1007.5 985.0
10 17.05 В 3
{5}
7000 м 9/9 360 м
[Sc diur, vesp]
+10.2 +7.7 84 +8 +9 1007.2 984.7
11 17.05 С 3
{5}
9000 м 9/9 450 м
[Sc diur, vesp]
+10.9 +7.9 82 +9 +10 1006.9 984.5
12 17.05 С 3
{6}
8000 м 9/9 270 м
[Sc diur, vesp]
+10.5 +7.9 84 +8 +10 1007.0 984.6 0.2
13 17.05 СВ 4
{5}
8000 м 9/9 360 м
[Sc diur, vesp]
+11.8 +8.7 81 +10 +11 1006.9 984.6
14 17.05 СВ 3
{5}
8000 м 9/9 450 м
[Sc diur, vesp]
+11.7 +8.2 79 +10 +11 1006.7 984.4
15 17.05 СВ 3
{5}
9000 м 9/9 450 м
[Sc diur, vesp]
+11.7 +8.5 81 +10 +11 1006.7 984.4
16 17.05 СВ 2
{4}
10 км 9/9 480 м
[Sc diur, vesp]
+12.0 +7.8 75 +11 +12 1006.4 984.1
17 17.05 С 3
{4}
10 км 9/9 540 м
[Sc]
+12.2 +8.1 76 +11 +11 1006.1 983.8
18 17.05 СВ 3
{5}
10 км 9/4 1500 м
[Sc Ac trans]
+11.6 +8.6 82 +10 +10 1006.1 983.8 +12.5 0.2
19 17.05 СВ 2
{4}
10 км 9/9 1500 м
[Sc]
+11.2 +9.0 86 +10 +10 1006.4 984.0
20 17.05 СВ 2
{4}
10 км 9/5 1500 м
[Sc Ac trans]
+10.9 +9.2 89 +10 +10 1006.5 984.1
21 17.05 СВ 2
{4}
9000 м 9/5 1500 м
[Sc Ac trans]
+10.5 +8.9 90 +9 +9 1006.6 984.2
22 17.05 СВ 2
{3}
9000 м 9/0
[Ac trans]
+10.1 +9.0 93 +8 +8 1006.5 984.1
23 17.05 В 2
{3}
7000 м 9/0
[Ac trans]
+10.2 +8.9 92 +9 +9 1006.4 984.0
00 18.05 СВ 1
{4}
7000 м 9/0
[Ac trans]
+10.0 +8.9 93 +9 +9 1006.2 983.7
01 18.05 СВ 2
{2}
4500 м дымка 5/0
[Ac trans]
+8.9 +8.4 97 +7 +7 1006.2 983.7
02 18.05 В 2
{3}
200 м туман 9/9 120 м
[Frnb]
+9.1 +9.1 100 +7 +7 1005.9 983.5
03 18.05 СВ 2
{3}
200 м туман 10/10 120 м
[Frnb]
+9.1 +9.1 100 +7 +7 1005.8 983.3
04 18.05 СВ 2
{4}
100 м туман 10/10 30 м
[Frnb]
+9.0 +9.0 100 +7 +7 1005.8 983.3
05 18.05 СВ 2
{4}
100 м туман 10/10 30 м
[Frnb]
+9.0 +9.0 100 +7 +7 1005.9 983.4
06 18.05 В 2
{4}
300 м туман 10/10 30 м
[St]
+9.3 +9.3 100 +7 +7 1006.2 983.7 +8.2
07 18.05 В 1
{3}
900 м туман 9/9 30 м
[St]
+9.6 +9.5 99 +9 +9 1006.3 983.9
08 18.05 ЮВ 2
{4}
1500 м дымка {туман} 9/9 30 м
[St]
+10.4 +9.9 97 +9 +10 1006.5 984.1
09 18.05 В 2
{4}
4000 м дымка {туман} 9/9 90 м
[St]
+11.9 +10.2 89 +11 +12 1006.5 984.2
10 18.05 СВ 3
{4}
5000 м дымка 8/8 330 м
[Sc]
+14.5 +11.0 80 +14 +16 1006.3 984.3
11 18.05 В 3
{5}
6000 м 5/5 450 м
[Cu Sc Ci fib]
+16.9 +9.8 63 +17 +24 1006.0 984.1
12 18.05 нст 2
{5}
14 км {туман} 5/5 1050 м
[Cu Sc Ci fib]
+16.9 +10.1 64 +17 +25 1005.8 983.9
13 18.05 В 1
{5}
14 км 9/9 1050 м
[Cu Sc]
+17.0 +10.1 64 +18 +20 1005.8 983.9
14 18.05 З 2
{6}
15 км в посл. час ливневой дождь 8/8 1050 м
[Cu Sc Ci fib]
+16.0 +13.1 83 +16 +19 1006.0 984.1
15 18.05 СЗ 2
{6}
15 км {ливн. осадки} 8/4 1200 м
[Cu Sc Ac trans Ci fib]
+17.2 +12.1 72 +18 +21 1005.7 983.8
16 18.05 С 2
{5}
15 км 9/6 1200 м
[Cu Sc Ac trans Ci fib]
+16.9 +11.9 72 +17 +19 1005.8 983.9
17 18.05 С 2
{5}
20 км в посл. час ливневой дождь 8/4 1200 м
[Cu Sc Ac trans Ci fib]
+16.0 +12.4 79 +16 +17 1005.9 984.0
18 18.05 С 3
{6}
20 км {ливн. осадки} 9/4 1500 м
[Cu Sc Ac trans]
+16.1 +13.2 83 +16 +16 1006.1 984.2 +18.3 4
19 18.05 В 4
{6}
20 км 10/4 2000 м
[Sc Ac trans]
+15.5 +11.4 77 +15 +15 1006.7 984.7
20 18.05 В 3
{7}
20 км слаб. ливневой дождь 10/9 1200 м
[Cu Sc]
+14.2 +10.1 76 +13 +13 1007.3 985.1
21 18.05 В 2
{7}
20 км в посл. час ливневой дождь 9/0 2000 м
[Ac lent]
+13.5 +9.7 78 +13 +13 1007.5 985.3
22 18.05 С 1
{4}
20 км слаб. ливневой дождь 10/3 720 м
[Cu hum Ac trans]
+12.8 +10.9 88 +13 +13 1007.4 985.2
23 18.05 штиль 0
{2}
20 км слаб. дождь 9/3 2000 м
[Sc Ac lent]
+12.6 +11.3 92 +12 +12 1007.2 985.0
00 19.05 С 1
{7}
20 км в посл. час дождь {ливн. осадки} 9/9 2000 м
[Sc]
+12.6 +10.9 89 +13 +13 1006.9 984.7
01 19.05 СЗ 1
{3}
10 км 9/9 2000 м
[Sc]
+12.7 +10.7 88 +13 +13 1006.8 984.5
02 19.05 ЮВ 1
{2}
6000 м 9/9 2000 м
[Sc]
+11.8 +11.2 96 +12 +12 1006.7 984.4
03 19.05 ЮЗ 1
{3}
6000 м слаб. дождь 9/9 2000 м
[Sc]
+12.0 +11.0 94 +12 +12 1006.7 984.4
04 19.05 штиль 0
{1}
3000 м слаб. ливневой дождь 10/9 1470 м
[Cu Sc]
+11.9 +11.0 94 +11 +11 1006.5 984.3
05 19.05 СЗ 1
{2}
2200 м слаб. ливневой дождь 10/9 1200 м
[Cu Sc]
+12.4 +11.2 92 +12 +12 1006.6 984.4
06 19.05 СЗ 2
{3}
1800 м слаб. ливневой дождь 9/9 1200 м
[Cu Sc]
+11.8 +11.3 97 +11 +11 1006.7 984.4 +11.6 1
07 19.05 СЗ 2
{3}
1500 м ливневой дождь 9/9 90 м
[Frnb]
+11.9 +11.3 96 +11 +11 1007.1 984.9

 

Местоположение метеостанции Шарлеруа (Бельгия): широта 50.47 долгота 4.45 высота над уровнем моря 192 м.

В архиве по умолчанию представлена погода в Шарлеруа за последнюю неделю. Архивные данные за месяц целиком и за предыдущие месяцы, начиная с января 2011 года, Вы можете получить, выбрав интересующий диапазон дат из раскрывающегося списка и нажав кнопку "Ввод!".


*Определитесь, кто Вы:
робот инопланетянин человек

Внимание! Время в таблицах - всемирное. Для получения местного времени необходимо прибавить поправку, которая равна 1 ч.

Смотрите также архив погоды в соседних городах и на ближайших метеорологических станциях:

Погода в Эрнаже (Бельгия) (28 км)
Погода во Флорене (Бельгия) (30 км)
Погода в Уккеле (Бельгия) (37 км)
Погода в Бовешене (Бельгия) (38 км)
Погода в Дурбе (Бельгия) (43 км)
Погода в Шьевре (Бельгия) (45 км)
Погода в Брюсселе (Бельгия) (48 км)
Погода в Гумане (Бельгия) (64 км)
Погода в Мелле (Бельгия) (72 км)
Погода в Шаффене (Бельгия) (73 км)

Пояснения к столбцам:

Ветер - указаны скорость ветра в м/с - средняя за 10 мин, порывы в срок и между сроками (в фигурных скобках) и направление, откуда дует ветер: С - северный, СВ - северо-восточный, В - восточный, ЮВ - юго-восточный, Ю - южный, ЮЗ - юго-западный, З - западный, СЗ - северо-западный.
Видимость - горизонтальная дальность видимости в метрах или километрах. При видимости от 1 до 10 км при отсутствии осадков обычно наблюдается дымка, при ухудшении видимости до 1 км и менее - туман. В сухую погоду видимость может ухудшаться дымом, пылью или мглою.
Явления - указаны атмосферные явления, наблюдавшиеся в срок или в последний час перед сроком; фигурными скобками обозначены явления, наблюдавшиеся между сроками (за 1-3 часа до срока); квадратными скобками обозначены град или гололедные отложения с указанием их диаметра в мм.
Облачность - указаны через наклонную черту общая и нижняя облачность в баллах и высота нижней границы облаков в метрах; квадратными скобками обозначены формы облаков: Ci - перистые, Cs - перисто-слоистые, Cc - перисто-кучевые, Ac - высококучевые, As - высокослоистые, Sc - слоисто-кучевые, Ns - слоисто-дождевые, Cu - кучевые, Cb - кучево-дождевые. Подробнее классификацию облаков см. в Атласе облаков (PDF).
T - Температура воздуха - температура, измеренная на высоте 2 м над землей.
Td - Температура точки росы - температура, при понижении до которой содержащийся в воздухе водяной пар достигнет насыщения.
f - Относительная влажность воздуха - влажноcть воздуха, измеренная на высоте 2 м над землей.
Te - Эффективная температура - температура, которую ощущает одетый по сезону человек в тени. Характеристика душности погоды. При расчете учитывается влияние влажности воздуха и скорости ветра на теплоощущения человека.
Tes - Эффективная температура на солнце - температура, которую ощущает человек, с поправкой на солнечный нагрев. Характеристика знойности погоды. Зависит от высоты солнца над горизонтом, облачности и скорости ветра. Ночью, в пасмурную погоду, а также при ветре 12 м/с и более поправка равна нулю.
P - Атмосферное давление - приведенное к уровню моря атмосферное давление.
Po - Атмосферное давление - измеренное на уровне метеостанции атмосферное давление.
Tmin - Минимальная температура - минимум температуры воздуха на высоте 2 м над землей.
Tmax - Максимальная температура - максимум температуры воздуха на высоте 2 м над землей.
R - Количество осадков - Количество выпавших осадков за период времени, мм. При наведении курсора мыши на число - период времени, за который выпало указанное количество осадков.
R24 - Количество осадков - Количество выпавших осадков за 24 часа, мм.
S - Снежный покров - Высота снежного покрова, см. При наведении курсора мыши на число - состояние снежного покрова и степень покрытия местности в баллах.